Regional Weather Roundup
Issued by NWS San Angelo, TX

Home | Current Version | Previous Version | Text Only | Print | Product List | Glossary On
Versions: 1 2 3 4 5 6 7 8 9 10 11 12 13 14 15 16 17 18 19 20 21 22 23 24 25 26 27 28 29 30 31 32 33 34 35 36 37 38 39 40 41 42 43 44 45 46 47 48 49 50
000
ASUS44 KSJT 041810
RWRSJT
WEST CENTRAL TEXAS REGIONAL WEATHER ROUNDUP
NATIONAL WEATHER SERVICE SAN ANGELO TX
100 PM CDT MON MAY 04 2015

NOTE: "FAIR" INDICATES FEW OR NO CLOUDS BELOW 12,000 FEET WITH NO
SIGNIFICANT WEATHER AND/OR OBSTRUCTIONS TO VISIBILITY.

TXZ049-054-064>066-071>073-076>078-098-099-113-114-127-128-139-140-
154-155-168>170-041900
...LOCATIONS ACROSS WEST CENTRAL TEXAS...

CITY           SKY/WX    TMP DP  RH WIND       PRES   REMARKS
SAN ANGELO     CLOUDY    80  60  50 S13G24    30.01F
ABILENE        PTSUNNY   78  62  57 SE16      30.07S
DYESS AFB      PTSUNNY   78  63  60 S15       30.04F
JUNCTION       CLOUDY    77  61  57 SE17G24   30.04F
SWEETWATER     PTSUNNY   75  62  64 SE10G17   30.08F
BROWNWOOD      PTSUNNY   77  63  61 SE10G17   30.07F
COLEMAN        MOCLDY    80  63  55 SE14      30.06F
SONORA         CLOUDY    73  64  73 SE13      30.08S
OZONA          MOCLDY    72  63  73 SE14      30.05S
BRADY          MOSUNNY   79  61  53 SE15      30.05F
$$

TEXAS PANHANDLE/OKLAHOMA PANHANDLE

CITY           SKY/WX    TMP DP  RH WIND       PRES   REMARKS
AMARILLO       MOSUNNY   77  54  44 SE18G28   30.04F
BORGER         MOSUNNY   77  48  35 S8        30.04F
CANADIAN       SUNNY     80  59  49 S5G16     30.02F
DALHART        PTSUNNY   75  52  44 E17       30.06F
DUMAS          PTCLDY    73  52  48 SE10      30.05F
GUYMON         NOT AVBL
HEREFORD       PTCLDY    76  59  55 MISG      30.04F
PAMPA          PTCLDY    78  49  36 S9G18     30.06F
PERRYTON       MOSUNNY   74  56  55 E9        30.05S
$$

SOUTHERN PANHANDLE/SOUTH PLAINS/ROLLING PLAINS

CITY           SKY/WX    TMP DP  RH WIND       PRES   REMARKS
LUBBOCK        CLOUDY    74  58  57 SE16G22   30.04F
SNYDER         MOSUNNY   75  62  63 S14G20    30.04F
CHILDRESS      PTSUNNY   78  61  55 S18G26    30.04S
SEMINOLE       PTCLDY    76  58  52 SE14G22   30.02F
$$

PERMIAN BASIN

CITY           SKY/WX    TMP DP  RH WIND       PRES   REMARKS
MIDLAND        PTSUNNY   79  59  50 S23G30    29.99F
ODESSA         PTSUNNY   77  58  51 S24G31    30.00F
WINK           CLOUDY    77  58  51 SE14      29.96F
$$

FAR WEST/SOUTHWEST MOUNTAINS/TRANS PECOS

CITY           SKY/WX    TMP DP  RH WIND       PRES   REMARKS
ALPINE         PTCLDY    75  56  51 S16G22    30.05F
DRYDEN           N/A     78  65  63 E25G31    29.95F
EL PASO        PTSUNNY   78  48  34 CALM      29.92F
FORT STOCKTON  PTSUNNY   77  59  53 S20G29    29.96F
GUADALUPE PASS MOSUNNY   70  54  56 NE25G36   30.05R
MARFA          PTSUNNY   72  54  53 SE13G20   30.04S
PECOS          CLEAR     80  59  48 E21G28    29.92F
$$

DALLAS/FORT WORTH METROPLEX

CITY           SKY/WX    TMP DP  RH WIND       PRES   REMARKS
DFW AIRPORT    MOSUNNY   79  62  56 SE16      30.09F
FTW MEACHAM    MOSUNNY   77  63  61 S13       30.09F
DAL-EXECUTIVE  MOSUNNY   79  61  53 SE13G18   30.10F
GRAND PRAIRIE  SUNNY     79  61  53 SE12G21   30.11F
ADDISON        MOSUNNY   81  57  44 SE15G22   30.11S
MESQUITE       MOCLDY    79  63  57 SE14      30.12F
LANCASTER      PTCLDY    77  61  57 SE14      30.12F
$$

NORTH CENTRAL TEXAS

CITY           SKY/WX    TMP DP  RH WIND       PRES   REMARKS
SHRMAN/DENISON CLEAR     79  66  63 S16       30.12F
GAINESVILLE    MOSUNNY   76  63  63 SE13G20   30.12F
BRIDGEPORT     MOCLDY    74  65  71 SE8       30.11F
DENTON         MOSUNNY   79  63  57 SE16      30.10F
WAXAHACHIE     PTCLDY    80  63  55 S12G17    30.12F
GRANBURY         N/A     78  63  59 SE9G17    30.10F
$$

WESTERN NORTH TEXAS

CITY           SKY/WX    TMP DP  RH WIND       PRES   REMARKS
WICHITA FALLS  PTSUNNY   80  65  59 S12G22    30.05F
VERNON         PTCLDY    80  58  47 SE9G20    30.04F
BRECKENRIDGE   CLOUDY    78  61  55 SE13      30.07F
COMANCHE       MOSUNNY   78  65  63 SE13G18   30.09F
$$

CENTRAL AND SOUTH CENTRAL TEXAS

CITY           SKY/WX    TMP DP  RH WIND       PRES   REMARKS
AUSTIN/BERGSTM PTSUNNY   80  64  58 SE15      30.07F
WACO           MOSUNNY   81  62  52 S14       30.09F
HILLSBORO      PTCLDY    77  62  58 S12       30.10F
TEMPLE         MOSUNNY   81  61  50 SE16      30.09F
KILLEEN-GRAY   MOSUNNY   77  63  61 SE15      30.08F
FORT HOOD      PTSUNNY   78  67  68 SE13      30.08F
GEORGETOWN     NOT AVBL
LAGO VISTA     FAIR      81  62  51 SE12G20   30.10S
SAN MARCOS     PTSUNNY   81  64  57 SE17G24   30.08F
NEW BRAUNFELS  CLOUDY    79  65  62 SE15      30.06F
RANDOLPH AFB   PTSUNNY   80  65  60 SE13G21   30.06F
SAN ANTONIO    CLOUDY    77  64  64 SE14      30.07S
STINSON        CLOUDY    80  64  58 SE15      30.04S
PLEASANTON     NOT AVBL
LA GRANGE      MOSUNNY   80  67  65 SE9       30.07F
GIDDINGS       PTCLDY    80  64  56 SE9       30.13F
$$

EAST TEXAS

CITY           SKY/WX    TMP DP  RH WIND       PRES   REMARKS
PARIS          PTSUNNY   77  61  57 MISG      30.15F
CLARKSVILLE    NOT AVBL
TYLER          MOSUNNY   80  57  45 S10       30.14F
LONGVIEW       MOSUNNY   80  58  46 SE12      30.14F
PALESTINE      PTCLDY    79  59  49 SE7       30.14F
NACOGDOCHES    MOSUNNY  N/A N/A N/A SE9       30.14F
$$

TEXAS HILL COUNTRY AND EDWARDS PLATEAU

CITY           SKY/WX    TMP DP  RH WIND       PRES   REMARKS
LLANO          PTCLDY    81  64  57 S13G21    30.09F
HORSESHOE BAY  FAIR      81  63  53 SE12G22   30.07F
KERRVILLE      PTSUNNY   76  68  75 SE15G23   30.08S
FREDERICKSBRG  CLOUDY    73  63  71 SE13      30.08F
ROCKSPRINGS    CLOUDY    70  64  83 SE13      30.08S
HONDO          LGT RAIN  76  66  71 SE15      30.06F
UVALDE         MOCLDY    74  69  85 E13G18    30.03F
DEL RIO        CLOUDY    77  67  71 SE20G28   29.97F
$$

SOUTHEAST TEXAS

CITY           SKY/WX    TMP DP  RH WIND       PRES   REMARKS
COLLEGE STN    SUNNY     81  61  50 SE15G22   30.11F
CALDWELL       PTCLDY   N/A N/A N/A E12G20    30.13F
CROCKETT       NOT AVBL
BRENHAM        SUNNY     80  63  54 SE9       30.12F
HUNTSVILLE     SUNNY     80  50  34 VRB5      30.13F
CONROE         SUNNY     80  51  36 E10       30.13F
HOUSTON BUSH   MOSUNNY   82  56  40 E8G17     30.12F
HOUSTON HOBBY  MOSUNNY   81  55  40 E13       30.11F
PERLAND        SUNNY     83  52  34 E10       30.13F
WHARTON        MOCLDY    80  60  50 E9G16     30.10F
$$

THE UPPER TEXAS COAST

CITY           SKY/WX    TMP DP  RH WIND       PRES   REMARKS
ORANGE         MOCLDY    78  56  46 E5        30.15F
PORT ARTHUR    MOSUNNY   82  58  43 SE13      30.13F
GALVESTON      SUNNY     79  61  53 E10       30.13F
ANGLETON       MOSUNNY   79  61  53 SE10      30.11F
BAY CITY       MOCLDY    82  63  52 E8        30.10S
$$

TEXAS COASTAL BEND, RIO GRANDE PLAINS DEEP SOUTH TEXAS

CITY           SKY/WX    TMP DP  RH WIND       PRES   REMARKS
VICTORIA       MOSUNNY   82  64  54 E15G24    30.08F
BEEVILLE       MOCLDY    81  66  60 SE10      30.05F
ROCKPORT       MOSUNNY   83  65  54 SE17      30.06S
PORT ARANSAS   PTCLDY    79  69  71 E12G20    30.06S
PORT LAVACA    CLEAR     80  66  63 SE15G23   30.08F
CORPUS CHRISTI PTSUNNY   81  67  62 E18       30.04F
KINGSVILLE NAS CLOUDY    84  70  62 SE18G25   30.03F
COTULLA        CLOUDY    80  66  62 SE21      30.01F
LAREDO         PTSUNNY   79  68  69 E17       30.01F
BROWNSVILLE    PTSUNNY   83  67  58 SE18      30.01S
PORT ISABEL    PTSUNNY   82  66  58 SE18G26   30.00F
HEBBRONVILLE     N/A     77  66  69 E14       30.03F
MCALLEN        CLOUDY    85  67  54 SE17      29.98F
WESLACO        PTSUNNY   84  66  54 SE20      29.98F
FALFURRIAS     CLOUDY    82  64  56 SE12G18   30.01S
EDINBURG       CLOUDY    85  66  51 SE16      30.00S
$$


USA.gov is the U.S. government's official web portal to all federal, state and local government web resources and services.